Temp
67 66 66 65 66 65 64 65 65 65 66 65 65 64 64 65 63 62 62 63 62 62 62 62 61 60 59 61 61 59 59 60 58 59 61 62 62 62 61 61 62 61 60
67 66 65 67 65 64 64 65 65 64 65 66 66 68 68 68 65 63 63 63 63 62 61 62 62 63 61 60 60 59 58 59 60 57 59 60 60 61 61 60 60 61 60
68 67 69 66 64 64 64 64 65 65 65 67 67 68 66 67 68 65 65 64 63 62 61 61 61 61 60 61 60 59 59 59 60 59 58 60 59 60 59 60 60 59 59
69 66 68 68 64 64 64 65 65 66 65 67 68 67 67 68 66 66 65 62 63 62 62 63 62 61 61 61 61 60 60 59 59 59 58 58 59 59 59 57 56 57 56
68 70 68 68 65 65 65 65 65 65 65 65 68 66 66 66 66 64 63 62 61 62 62 62 61 60 61 61 62 60 60 59 58 58 57 57 56 56 56 56 55 55 55
68 70 67 70 69 64 64 64 64 64 64 64 63 64 62 64 52 56 61 61 62 61 62 60 59 58 58 57 57 57 60 59 58 57 56 56 55 55 56 55 55 53 52
69 70 69 70 69 66 66 64 63 62 62 63 62 59 58 56 47 52 57 64 63 62 62 61 63 61 59 58 53 53 53 53 57 60 57 56 56 57 56 55 55 54 53
70 72 71 71 67 68 64 63 62 62 61 62 61 59 57 55 47 47 55 63 62 62 60 60 60 59 59 60 60 60 59 60 60 61 60 58 59 58 58 58 57 56 57
71 71 71 73 67 65 62 61 61 61 60 60 61 59 57 57 48 48 59 62 61 59 59 60 61 59 49 51 60 59 58 57 51 50 50 49 48 49 55 60 56 56 54
71 73 74 75 68 64 62 61 61 60 60 61 62 58 56 58 47 48 57 59 58 58 58 57 50 55 47 49 60 59 58 57 57 56 55 52 53 52 52 60 62 58 55
73 74 73 72 67 64 62 62 61 60 61 62 61 58 59 57 53 49 52 62 59 58 57 57 54 46 46 48 53 61 58 59 55 58 57 57 57 57 57 57 59 58 57
73 72 70 68 71 67 63 61 62 60 62 61 60 58 58 58 51 48 48 53 53 57 55 57 53 45 46 47 55 46 48 54 60 58 58 57 58 57 57 57 60 62 61
71 70 69 69 68 65 63 62 61 59 59 61 60 57 58 59 54 47 45 46 53 57 56 51 44 44 44 46 46 48 51 61 60 59 59 59 60 59 57 58 57 57 58
69 70 69 68 66 64 65 64 63 60 59 60 59 58 58 59 56 54 54 55 50 52 48 50 52 50 50 50 53 56 61 61 61 61 61 60 59 59 59 57 55 54 53
70 70 68 68 68 64 63 60 65 65 64 63 62 61 59 58 59 55 55 58 57 55 54 54 55 56 55 56 57 57 59 59 59 59 58 57 57 58 57 57 55 53 52
70 70 69 68 67 67 60 55 44 45 50 52 55 61 63 56 47 48 48 49 47 46 55 55 55 55 57 57 57 57 58 59 60 61 58 58 58 58 58 55 55 52 51
71 70 69 68 68 67 64 60 56 53 44 43 51 52 55 52 46 47 48 45 44 47 56 56 57 56 57 57 57 57 58 62 59 61 60 59 59 60 53 57 55 54 53
71 59 71 70 70 66 67 64 62 59 57 57 48 52 48 46 46 46 43 46 54 51 58 58 58 60 60 60 59 58 59 59 59 59 60 60 59 60 56 56 56 53 53
72 71 73 69 71 68 68 68 66 64 62 58 53 49 42 42 44 44 42 63 60 60 60 60 61 61 63 64 63 62 61 60 59 58 58 58 58 57 56 56 56 47 48
75 63 65 72 69 70 67 69 68 66 64 62 59 56 48 48 54 52 53 62 61 62 63 63 61 62 63 64 65 65 64 59 62 62 62 62 61 61 60 59 59 57 54
76 67 60 71 69 72 70 70 70 67 67 65 62 59 45 60 60 58 59 60 63 64 64 65 66 65 62 65 67 65 64 63 64 65 64 63 62 62 62 60 58 57 54
77 74 73 72 73 71 72 68 70 67 69 68 66 59 41 63 61 60 60 61 64 65 66 67 68 68 68 65 66 66 66 65 63 63 64 64 63 62 60 58 57 54 53
77 76 72 75 71 62 64 72 70 70 67 70 70 62 54 63 62 62 62 63 63 65 66 62 63 68 68 65 64 66 68 67 66 64 63 64 63 62 61 57 57 55 53
76 76 74 75 75 71 68 71 70 60 69 69 69 62 60 62 64 65 65 65 64 65 66 67 67 65 63 63 66 70 67 66 66 67 66 64 63 56 64 61 58 56 52
68 73 75 74 75 73 72 69 71 70 71 71 69 64 64 64 65 66 67 67 66 66 65 66 68 69 65 64 65 66 59 45 64 57 66 64 65 62 64 62 56 52 46
65 66 68 73 75 74 73 71 71 71 72 74 71 66 66 66 67 68 68 68 68 68 68 68 69 68 68 69 69 61 46 43 49 44 65 64 62 62 62 60 57 50 46
MSLP
1003.75 1004.24 1004.50 1004.83 1005.01 1005.22 1005.29 1005.50 1005.63 1005.79 1005.94 1006.14 1006.27 1006.50 1006.54 1006.78 1007.10 1007.24 1007.38 1007.54 1007.71 1007.91 1008.18 1008.21 1008.44 1008.64 1008.61 1008.60 1008.66 1008.93 1009.29 1009.57 1010.82 1011.79 1011.89 1012.16 1012.34 1012.56 1013.14 1014.04 1015.07 1016.33 1017.23
1003.77 1004.19 1004.49 1004.89 1005.10 1005.27 1005.45 1005.45 1005.57 1005.81 1005.86 1006.03 1006.23 1006.32 1006.39 1006.58 1006.93 1007.18 1007.47 1007.45 1007.83 1008.00 1008.18 1008.16 1008.36 1008.45 1008.62 1008.71 1008.81 1009.15 1009.58 1009.99 1010.55 1011.60 1012.34 1012.66 1012.93 1013.42 1014.05 1014.98 1015.73 1016.78 1017.59
1003.69 1004.16 1004.56 1004.92 1005.16 1005.34 1005.51 1005.52 1005.60 1005.73 1005.81 1005.92 1006.18 1006.22 1006.53 1006.69 1006.90 1007.14 1007.32 1007.48 1007.76 1007.93 1008.04 1008.25 1008.38 1008.52 1008.84 1009.04 1009.15 1009.44 1009.89 1010.40 1010.93 1011.62 1012.53 1013.16 1013.71 1014.14 1014.73 1015.62 1016.65 1017.58 1018.34
1003.53 1004.05 1004.53 1004.83 1005.21 1005.40 1005.47 1005.48 1005.63 1005.69 1005.80 1006.01 1006.16 1006.32 1006.51 1006.72 1007.04 1007.19 1007.37 1007.68 1007.79 1007.93 1008.07 1008.29 1008.57 1008.69 1008.91 1009.23 1009.39 1009.64 1010.11 1010.67 1011.28 1011.87 1012.68 1013.44 1013.92 1014.72 1015.07 1015.77 1017.38 1018.32 1019.03
1003.46 1003.92 1004.25 1004.87 1005.17 1005.38 1005.52 1005.55 1005.76 1005.86 1005.90 1006.17 1006.34 1006.68 1006.84 1007.11 1007.37 1007.46 1007.68 1007.87 1008.13 1008.27 1008.46 1008.58 1008.77 1008.84 1008.85 1009.22 1009.48 1009.91 1010.19 1010.69 1011.23 1011.86 1012.61 1013.39 1014.17 1014.89 1015.51 1016.51 1017.45 1018.57 1019.97
1003.30 1003.74 1004.13 1004.66 1005.13 1005.44 1005.63 1005.77 1006.01 1006.21 1006.31 1006.44 1006.93 1007.20 1007.50 1007.79 1007.79 1007.67 1007.89 1008.15 1008.28 1008.41 1008.67 1008.95 1009.05 1009.10 1009.05 1009.19 1009.64 1010.01 1010.15 1010.59 1011.31 1011.90 1012.64 1013.34 1014.31 1015.13 1016.13 1016.81 1017.41 1018.75 1020.19
1003.11 1003.68 1004.14 1004.48 1004.97 1005.38 1005.63 1005.97 1006.27 1006.51 1006.67 1006.93 1007.36 1007.73 1008.19 1008.49 1008.27 1008.03 1008.04 1008.22 1008.38 1008.49 1008.62 1009.08 1009.28 1009.50 1009.53 1009.90 1010.25 1010.58 1010.98 1011.32 1011.57 1012.00 1012.85 1013.81 1014.51 1015.23 1015.97 1017.27 1017.92 1018.48 1019.28
1002.95 1003.34 1003.87 1004.12 1004.70 1005.28 1005.73 1006.12 1006.43 1006.68 1006.90 1007.16 1007.72 1008.17 1008.50 1008.90 1008.60 1008.50 1008.54 1008.66 1008.76 1008.87 1009.07 1009.25 1009.56 1009.94 1010.18 1010.33 1010.74 1011.25 1011.80 1012.30 1012.52 1012.84 1013.04 1014.11 1014.66 1015.70 1016.10 1016.69 1017.78 1018.65 1019.53
1002.63 1002.97 1003.55 1003.96 1004.72 1005.32 1005.91 1006.29 1006.62 1006.89 1007.21 1007.56 1008.00 1008.47 1008.71 1008.90 1008.89 1008.86 1008.95 1009.13 1009.39 1009.65 1009.70 1009.87 1009.94 1010.34 1010.60 1010.81 1011.13 1011.67 1012.40 1013.26 1013.59 1013.84 1014.20 1014.75 1015.58 1016.05 1016.44 1017.31 1018.11 1018.73 1019.86
1002.02 1002.50 1003.20 1003.65 1004.61 1005.23 1005.75 1006.32 1006.69 1007.03 1007.44 1007.79 1008.29 1008.59 1008.83 1009.07 1009.18 1009.18 1009.27 1009.55 1009.86 1010.16 1010.34 1010.51 1010.61 1010.85 1011.02 1011.25 1011.57 1012.08 1012.75 1013.55 1014.18 1014.99 1015.72 1016.16 1016.30 1016.80 1017.20 1017.38 1017.82 1018.51 1019.36
1001.60 1002.06 1002.83 1003.51 1004.35 1004.95 1005.62 1006.24 1006.77 1007.20 1007.60 1007.94 1008.29 1008.74 1009.03 1009.26 1009.42 1009.41 1009.57 1009.76 1010.12 1010.51 1010.76 1011.07 1011.35 1011.36 1011.55 1011.74 1012.08 1012.53 1012.99 1013.58 1014.43 1015.15 1015.96 1016.60 1017.02 1017.40 1017.63 1017.80 1017.98 1018.41 1018.96
1001.30 1001.97 1002.81 1003.56 1004.27 1004.90 1005.50 1006.34 1006.79 1007.18 1007.63 1008.07 1008.48 1008.99 1009.28 1009.47 1009.60 1009.66 1009.76 1010.03 1010.44 1010.74 1011.11 1011.40 1011.66 1011.65 1011.91 1012.20 1012.55 1013.05 1013.62 1014.14 1014.66 1015.32 1016.16 1016.89 1017.29 1017.68 1017.83 1017.99 1018.11 1018.24 1018.37
1001.15 1002.09 1002.82 1003.62 1004.25 1004.83 1005.58 1006.41 1006.97 1007.36 1007.77 1008.12 1008.51 1009.08 1009.37 1009.61 1010.05 1010.14 1010.21 1010.37 1010.65 1011.06 1011.36 1011.70 1011.88 1012.07 1012.41 1012.72 1013.02 1013.55 1014.08 1014.47 1014.95 1015.56 1016.06 1016.61 1017.02 1017.49 1017.85 1018.17 1018.31 1018.38 1018.38
1001.12 1001.93 1002.72 1003.56 1004.30 1004.84 1005.62 1006.28 1006.83 1007.30 1007.72 1007.98 1008.40 1008.89 1009.24 1009.62 1010.12 1010.50 1010.66 1010.83 1011.09 1011.46 1011.56 1011.95 1012.17 1012.33 1012.59 1013.18 1013.71 1013.96 1014.29 1014.66 1015.09 1015.47 1016.05 1016.56 1017.05 1017.53 1017.90 1018.15 1018.49 1018.50 1018.78
1000.84 1001.66 1002.54 1003.28 1003.99 1004.81 1005.48 1006.34 1006.47 1006.54 1006.66 1007.17 1007.70 1008.11 1008.65 1009.29 1009.73 1009.99 1010.37 1010.77 1011.07 1011.35 1011.85 1012.19 1012.48 1012.70 1013.21 1013.66 1014.02 1014.25 1014.44 1014.77 1015.16 1015.50 1015.92 1016.43 1016.86 1017.15 1017.54 1017.72 1017.95 1018.53 1018.86
1000.57 1001.34 1002.10 1002.95 1003.78 1004.51 1005.34 1006.24 1006.40 1006.37 1006.16 1006.50 1006.88 1007.39 1008.18 1008.63 1009.24 1009.86 1010.31 1010.59 1010.96 1011.31 1011.75 1012.21 1012.55 1012.79 1013.16 1013.52 1013.80 1014.00 1014.23 1014.47 1014.71 1015.06 1015.55 1015.88 1016.28 1016.73 1017.10 1017.46 1017.73 1018.25 1018.78
999.98 1000.80 1001.54 1002.35 1003.17 1004.02 1004.87 1005.59 1006.23 1006.61 1006.64 1006.40 1006.51 1007.18 1007.70 1008.26 1009.08 1009.67 1010.15 1010.63 1010.98 1011.35 1011.72 1012.05 1012.30 1012.54 1012.75 1013.01 1013.19 1013.43 1013.61 1013.72 1014.01 1014.47 1014.88 1015.32 1015.70 1016.10 1016.49 1017.00 1017.52 1017.82 1018.11
999.46 1000.16 1000.98 1001.62 1002.32 1003.21 1003.98 1004.80 1005.48 1006.06 1006.51 1007.03 1007.20 1007.20 1007.44 1008.03 1008.68 1009.29 1009.98 1010.69 1011.44 1011.65 1011.36 1011.44 1011.66 1011.91 1012.11 1012.32 1012.61 1012.91 1013.08 1013.30 1013.54 1013.83 1014.34 1014.74 1015.12 1015.52 1016.10 1016.47 1016.78 1017.03 1017.48
998.89 999.87 1000.41 1001.14 1001.75 1002.41 1003.06 1003.81 1004.56 1005.29 1005.93 1006.52 1007.16 1007.60 1008.16 1008.34 1008.60 1009.04 1009.56 1009.89 1010.34 1010.74 1010.73 1010.73 1010.78 1011.06 1011.39 1011.53 1011.78 1012.08 1012.38 1012.78 1013.04 1013.49 1013.83 1014.15 1014.52 1015.04 1015.32 1015.53 1015.85 1016.19 1016.70
998.26 999.10 999.88 1000.56 1001.27 1001.84 1002.32 1002.88 1003.54 1004.26 1005.06 1005.86 1006.59 1007.21 1008.11 1008.81 1009.37 1009.67 1009.72 1009.48 1009.57 1009.67 1009.80 1009.92 1010.00 1010.03 1010.22 1010.59 1010.83 1011.05 1011.50 1011.96 1012.22 1012.51 1012.74 1012.99 1013.37 1013.78 1014.14 1014.49 1015.11 1015.63 1016.09
997.49 998.51 999.14 999.99 1000.52 1000.99 1001.51 1001.92 1002.49 1003.19 1003.90 1004.69 1005.54 1006.29 1006.67 1007.46 1007.99 1008.45 1008.74 1008.80 1008.71 1008.74 1008.80 1008.90 1009.01 1009.18 1009.28 1009.30 1009.51 1009.89 1010.19 1010.55 1010.82 1011.05 1011.42 1011.83 1012.27 1012.73 1012.87 1013.29 1013.95 1014.46 1014.89
996.44 997.49 998.36 999.01 999.61 1000.16 1000.52 1000.99 1001.44 1002.07 1002.67 1003.42 1004.37 1005.50 1006.19 1006.52 1006.82 1007.12 1007.39 1007.52 1007.51 1007.63 1007.75 1007.97 1008.10 1008.15 1008.21 1008.38 1008.57 1008.77 1008.98 1009.34 1009.73 1010.11 1010.45 1010.74 1011.12 1011.45 1011.86 1012.43 1012.88 1013.32 1014.01
995.76 996.48 997.44 997.91 998.51 999.08 999.79 1000.00 1000.42 1000.83 1001.46 1002.05 1002.88 1004.11 1005.48 1005.50 1005.62 1005.77 1005.94 1006.10 1006.38 1006.57 1006.80 1006.95 1006.98 1007.05 1007.10 1007.16 1007.38 1007.63 1007.88 1008.07 1008.34 1008.72 1009.25 1009.69 1010.13 1010.55 1010.95 1011.42 1011.95 1012.57 1013.24
995.42 995.54 996.14 996.77 997.37 998.06 998.62 998.98 999.34 999.71 1000.13 1000.79 1001.52 1002.56 1003.34 1003.84 1004.05 1004.16 1004.28 1004.62 1005.04 1005.28 1005.52 1005.68 1005.84 1005.99 1006.12 1006.19 1006.13 1006.15 1006.40 1006.61 1006.86 1007.22 1007.71 1008.34 1008.82 1009.28 1009.65 1010.32 1010.86 1011.53 1012.26
995.99 995.44 995.66 996.16 996.67 997.27 997.66 998.11 998.33 998.70 999.14 999.57 1000.17 1000.97 1001.58 1002.09 1002.44 1002.62 1002.85 1003.17 1003.52 1003.88 1004.07 1004.28 1004.50 1004.67 1004.84 1005.04 1005.31 1005.37 1005.49 1005.62 1005.67 1005.89 1006.34 1006.87 1007.35 1007.92 1008.38 1008.92 1009.64 1010.50 1011.43
996.20 995.93 995.91 995.90 995.91 996.33 996.70 997.23 997.44 997.69 998.00 998.39 998.88 999.51 1000.10 1000.57 1000.88 1001.15 1001.42 1001.77 1002.06 1002.32 1002.56 1002.83 1003.01 1003.22 1003.36 1003.48 1003.53 1003.77 1004.22 1004.59 1004.98 1005.04 1005.11 1005.78 1006.43 1006.97 1007.39 1007.90 1008.62 1009.38 1010.31
Wind_Speed
8 6 6 5 5 4 3 4 4 3 6 5 5 5 5 6 6 4 3 3 6 4 2 2 1 1 2 3 3 3 4 6 8 3 3 5 9 12 12 15 17 15 15
7 6 7 6 5 5 4 3 4 3 4 6 5 5 4 6 6 5 3 5 5 4 4 2 0 3 5 4 4 5 6 6 11 12 5 4 8 13 15 15 12 11 13
7 7 6 6 6 4 5 4 4 4 4 5 3 5 5 5 6 4 5 4 5 5 4 4 4 5 6 4 4 6 7 7 7 8 7 5 7 10 13 13 12 11 7
8 8 8 6 6 4 4 4 4 4 5 5 5 5 5 5 6 5 4 4 5 4 3 3 5 5 7 5 5 6 7 8 9 8 9 10 8 12 12 14 11 9 11
7 9 9 6 7 5 4 4 4 6 5 5 4 5 6 6 4 6 6 6 6 7 6 7 5 5 8 7 6 7 8 7 8 9 8 9 9 11 13 10 12 11 7
8 10 7 8 7 6 6 5 5 6 6 6 7 7 7 5 5 9 7 6 6 6 6 5 5 5 4 9 11 8 8 11 10 8 10 12 9 11 11 11 13 11 6
8 8 8 9 7 6 6 6 6 6 6 5 8 7 6 5 7 10 9 5 5 4 5 6 5 5 9 9 12 14 13 12 11 13 14 13 14 14 12 10 10 6 4
10 11 9 7 7 7 6 7 5 5 6 6 7 6 6 4 7 9 8 5 5 7 6 6 6 7 7 11 11 12 10 9 8 8 13 11 13 11 7 9 10 6 8
10 9 11 9 10 9 6 7 5 5 5 6 7 7 6 4 8 5 7 7 7 7 6 6 7 7 8 12 12 13 13 10 11 13 13 15 13 12 11 10 7 9 7
7 10 13 11 11 9 8 7 4 5 5 6 8 6 7 5 6 9 7 4 6 6 5 6 9 7 10 11 12 12 14 12 13 10 9 10 10 10 10 5 7 9 7
7 8 11 12 12 10 7 5 6 6 6 7 9 6 6 5 3 5 6 4 5 5 4 4 3 8 9 11 10 10 11 12 11 10 8 7 6 6 4 3 5 6 6
8 8 12 11 10 7 11 5 7 6 7 7 8 5 4 4 6 6 10 10 8 6 4 3 3 8 11 11 9 14 15 11 8 7 7 7 6 6 3 1 1 5 5
9 13 12 11 10 8 11 8 7 5 5 7 6 5 4 4 4 5 9 9 10 5 4 6 8 10 10 9 15 17 12 8 8 7 7 6 6 4 4 3 3 4 4
11 13 10 12 9 6 7 7 7 6 5 6 6 6 5 4 4 4 3 5 8 6 7 5 5 7 10 9 8 8 6 6 7 7 7 4 4 4 4 4 3 2 2
12 12 11 10 11 7 5 4 8 8 10 10 7 8 9 7 6 8 7 5 5 7 7 4 2 3 5 5 5 4 5 5 7 5 4 5 4 4 4 4 4 3 3
12 10 10 10 8 8 6 4 9 7 10 13 12 10 6 9 15 14 12 10 12 13 4 4 3 4 7 6 6 5 4 8 6 7 5 6 6 6 6 4 3 4 4
14 12 9 10 9 8 7 6 5 4 8 3 17 15 14 13 17 16 14 10 11 9 3 4 4 5 5 6 5 4 5 7 6 7 7 7 7 7 7 6 4 4 4
13 15 11 9 9 7 9 7 7 6 4 3 6 5 14 18 18 17 14 11 3 3 3 5 5 6 7 7 6 5 4 5 5 7 8 8 7 8 5 6 6 5 5
12 11 11 7 9 8 7 9 8 8 8 5 3 5 7 4 11 14 17 8 7 8 7 5 5 6 8 8 8 6 6 5 5 6 6 7 7 5 5 6 7 8 7
13 15 10 9 9 9 7 8 9 9 8 9 7 5 6 5 7 6 7 9 7 7 7 7 5 5 6 9 10 10 9 8 9 8 9 9 9 9 9 10 9 8 8
12 9 12 9 8 11 8 10 8 9 10 9 9 9 12 10 11 10 10 9 9 8 9 9 8 7 5 6 9 9 10 10 11 11 11 10 9 10 10 9 8 8 6
13 12 12 9 9 9 10 7 9 8 11 11 9 9 14 10 10 10 11 11 11 10 8 9 10 9 9 7 8 9 10 9 8 9 10 10 9 9 8 6 7 6 6
12 14 12 12 8 10 7 10 9 9 8 12 11 11 12 11 11 11 12 12 12 12 10 6 7 10 8 7 7 9 10 10 10 9 10 10 9 9 8 7 7 6 5
7 14 14 12 12 9 8 10 9 11 10 9 11 11 14 14 13 15 13 12 12 13 12 12 11 10 7 6 8 9 8 8 8 10 13 10 11 10 10 8 7 7 5
5 4 12 12 12 11 10 8 10 10 10 9 8 10 13 14 14 14 13 12 13 12 14 13 12 16 14 13 11 10 10 11 12 11 9 11 13 13 12 10 7 5 5
2 4 2 7 12 12 11 9 10 10 11 11 9 10 12 13 14 13 13 13 13 13 14 13 15 19 18 16 18 18 12 11 11 12 10 9 9 9 9 10 11 6 11
Wind_Direction
141 167 145 151 135 130 134 148 143 123 141 151 161 183 186 149 152 146 173 150 134 152 116 132 87 140 283 87 121 102 89 106 119 79 73 102 112 118 112 118 124 127 123
154 156 146 133 133 136 130 134 142 141 159 169 187 188 194 153 156 168 190 150 147 155 137 131 152 150 103 107 90 88 107 120 133 130 128 112 111 123 117 120 118 117 126
152 133 129 135 136 128 153 145 135 126 161 169 169 123 125 132 117 112 134 148 139 152 162 155 145 112 105 105 106 102 106 107 124 131 128 109 119 126 117 112 111 104 112
148 135 148 133 138 145 147 138 142 136 132 151 144 151 164 126 123 130 120 109 121 132 109 74 144 116 117 111 100 109 116 123 136 132 138 131 130 131 125 125 116 115 111
142 144 135 149 143 150 141 119 109 111 108 141 144 74 70 67 84 111 101 91 90 89 89 83 75 95 140 146 145 141 132 127 133 135 131 130 128 131 128 122 114 112 91
144 148 151 140 147 155 145 128 114 110 105 112 83 95 80 71 32 89 112 106 100 108 105 94 93 89 137 106 107 117 126 133 134 130 130 128 110 120 123 122 121 129 122
149 148 155 140 165 153 139 123 120 121 121 118 106 96 90 74 29 79 92 93 96 100 109 118 96 84 92 104 93 91 78 82 107 130 127 129 126 131 131 131 135 121 119
172 162 160 165 126 136 129 130 121 118 126 97 99 106 101 80 47 46 86 90 70 61 76 97 105 99 109 115 112 111 106 97 100 124 129 133 130 135 120 131 133 112 107
166 166 160 158 139 133 139 137 134 121 109 106 115 110 105 73 49 40 106 86 80 66 59 63 86 95 124 124 115 114 108 93 66 72 94 108 115 114 126 129 132 130 134
176 156 170 148 144 143 145 143 134 123 118 114 119 122 128 120 68 84 101 100 92 87 72 66 72 113 119 122 126 128 124 128 121 115 102 89 112 129 136 126 149 143 139
161 157 148 134 142 144 138 129 132 133 135 128 128 136 122 127 80 102 125 111 108 106 97 91 84 119 122 117 128 135 137 136 128 129 123 120 118 145 147 95 112 145 160
151 129 126 134 139 131 132 117 131 130 131 128 128 117 114 106 118 114 104 112 121 123 119 104 107 126 128 114 113 122 122 128 138 135 127 134 144 171 192 145 80 184 211
140 136 137 141 142 141 130 131 131 129 135 144 139 135 131 129 101 98 95 103 127 106 121 118 108 104 107 103 125 128 133 140 142 140 149 162 163 157 140 128 77 88 99
143 147 146 142 147 139 139 146 146 148 152 158 152 152 152 140 138 142 130 108 98 89 110 113 112 85 89 114 124 137 129 142 149 157 158 147 151 153 158 151 162 162 96
148 147 146 146 152 153 143 148 167 177 176 171 175 165 158 169 179 167 159 150 141 143 120 102 96 89 103 127 148 163 145 151 155 159 156 159 163 149 167 172 161 158 157
151 156 150 158 158 163 146 101 43 28 199 182 161 165 168 159 154 161 171 163 147 148 115 138 144 145 154 167 177 189 172 176 177 176 172 169 172 172 173 178 150 167 171
158 163 162 157 164 163 163 144 130 18 75 71 167 163 162 164 161 168 179 160 167 144 148 169 160 164 179 183 186 184 184 182 174 178 175 178 176 183 174 188 173 178 200
161 162 167 172 172 160 169 161 151 150 148 137 48 157 167 163 169 174 155 125 120 257 182 189 180 179 183 191 192 194 198 169 169 171 176 178 182 186 180 188 194 190 191
161 168 171 163 177 182 162 168 166 165 162 161 113 74 59 108 164 165 167 181 182 191 216 216 196 181 190 193 199 200 193 189 183 173 181 186 190 176 198 199 199 202 186
172 171 167 176 175 184 179 179 178 175 172 169 175 175 132 131 169 179 199 197 192 199 201 213 216 208 195 191 200 197 197 194 194 195 199 198 195 193 204 205 201 205 207
175 166 172 174 175 189 189 189 191 175 183 175 186 176 170 169 180 190 193 204 208 208 208 214 224 225 217 210 209 196 196 191 198 201 201 199 198 202 208 201 196 201 185
172 172 182 180 185 185 194 182 185 179 183 187 180 176 177 180 183 188 195 204 209 213 211 209 219 223 222 204 206 206 206 206 195 195 203 206 201 202 196 192 197 192 182
173 177 182 190 187 186 185 193 188 191 179 188 183 167 181 197 193 196 200 202 205 211 219 214 212 220 217 209 198 199 205 205 200 190 194 200 200 202 200 197 196 195 178
211 183 181 187 192 197 187 195 191 191 187 182 183 171 184 195 200 203 203 203 205 211 213 219 222 216 219 224 228 219 204 201 194 196 189 191 198 197 204 204 196 194 173
330 205 189 190 197 202 204 192 199 189 195 190 180 178 188 195 201 205 205 204 206 206 212 213 217 225 227 226 220 214 217 204 202 197 191 195 201 195 201 203 189 156 130
20 342 322 203 194 201 206 204 201 196 193 201 191 179 187 194 202 204 205 206 208 210 209 211 216 216 218 221 223 227 212 205 215 215 194 187 190 198 199 197 191 163 156